Regional Weather Roundup
Issued by NWS Newport/Morehead, NC

Current Version | Previous Version | Graphics & Text | Print | Product List | Glossary Off
Versions: 1 2 3 4 5 6 7 8 9 10 11 12 13 14 15 16 17 18 19 20 21 22 23 24 25 26 27 28 29 30 31 32 33 34 35 36 37 38 39 40 41 42 43 44 45 46 47 48 49 50

000
ASUS42 KMHX 260213
RWRMHX
WEATHER ROUNDUP FOR EASTERN NORTH CAROLINA
NATIONAL WEATHER SERVICE NEWPORT/MOREHEAD CITY NC
1000 PM EDT SAT MAR 25 2017

NOTE: "FAIR" INDICATES FEW OR NO CLOUDS BELOW 12,000 FEET
WITH NO SIGNIFICANT WEATHER AND/OR OBSTRUCTIONS TO VISIBILITY

NCZ015>017-031-032-045>047-102-103-260300-
NORTH COAST

CITY           SKY/WX    TMP DP  RH WIND       PRES   REMARKS
EDENTON        PTCLDY    64  53  67 S8        30.26S
ELIZABETH CITY PTCLDY    63  51  65 S9        30.25R
KITTY HAWK     NOT AVBL
MANTEO         CLOUDY    57  52  83 SW5       30.27S

$$

NCZ045>047-081-094-103-104-260300-
CENTRAL COAST

CITY           SKY/WX    TMP DP  RH WIND       PRES   REMARKS
FRISCO         MOCLDY    64  56  75 W7        30.28S

$$

NCZ095-097-098-100-101-260300-
SOUTHERN COAST

CITY           SKY/WX    TMP DP  RH WIND       PRES   REMARKS
BEAUFORT       MOCLDY    62  58  86 S5        30.28S
CEDAR ISLAND   NOT AVBL
JACKSONVILLE   PTCLDY    62  56  80 S5        30.26S
PINEY ISLAND   PTCLDY   N/A N/A N/A S6        30.28R
WILMINGTON     PTCLDY    62  56  80 S5        30.27S


$$

NCZ011>013-027>030-043-044-078>080-089-090>093-098-260300-
COASTAL PLAIN

CITY           SKY/WX    TMP DP  RH WIND       PRES   REMARKS
AHOSKIE          N/A     61  51  69 S5        30.24S
CLINTON        CLOUDY    64  54  70 S3        30.27R
ELIZABETHTOWN  CLOUDY    63  54  73 SE6       30.26R
GOLDSBORO      MOCLDY    65  54  66 S3        30.24R
GREENVILLE     PTCLDY    64  54  68 S8        30.27R
HAVELOCK       CLEAR     63  54  72 S3        30.28S
KENANSVILLE    PTCLDY    61  52  72 CALM      30.27R
KINSTON        NOT AVBL
NEW BERN       CLOUDY    62  55  77 S7        30.28S
RICHLANDS      PTCLDY    61  54  77 S5        30.27R
ROCKY MOUNT    MOCLDY    64  53  67 S6        30.24R
WASHINGTON     CLOUDY    63  53  69 CALM      30.27S
WHITEVILLE     CLOUDY    63  54  72 CALM      30.26R

$$

AMZ130-135-150-152-154-156-158-170-250-252-270-ANZ085-086-088-633-658-670-260300-
MARINE OBSERVATIONS

STATION/POSITION TIME  TEMP    WIND        PRES    WAVE   SWELL
                       AIR SEA DIR/SP/G            HT/PER HT/PER
                 (UTC) (F)     (DEG/KT/KT) (MB)    (FT/S) (FT/S)
CHESAPEAKE LIGHT NOT AVBL
64 E VA BEACH    0150   54 49  210/ 12/ 12 1024.6    3/ 4   2/ 5
DUCK             0142   62 48  200/ 11/ 14 1024.1
2 E DUCK         0200      50                N/A     1/ 9
OREGON INLET     0142   58 59  200/  9/ 11 1025.0
13E OREGON INLT  0148      50                N/A     2/ 7   2/ 7
HATTERAS CG      0142   63 58  230/  6/  8 1025.2
DIAMOND BUOY     0150   70 76  190/ 16/ 19 1025.3    4/ 5   2/ 7
CAPE LOOKOUT     0100   67     210/  7/  9 1025.0
BEAUFORT LAB     0142   62 55  210/  4/  5 1024.4
30 SE NEW RVR IN 0108   66     240/  4/  6 1025.4
30 SE NEW RVR IN 0143      66                N/A     3/ 8
27 SE WRIGHTSVLE 0108   64 63  130/  2/  4 1024.2
5 SE WRIGHTSVLE  0108   61 59  160/  4/  6 1024.9
225 S CAPE HAT   0050   67 73   80/ 10/ 12 1026.4    5/ 8   5/ 8
41 SE CHARLESTON 0050   71 71  120/ 14/ 17 1023.1    4/ 7   3/ 7

$$




USA.gov is the U.S. government's official web portal to all federal, state and local government web resources and services.